When you browse on this site, cookies collect data to enhance your experience and personalize the content and advertising you see.
Visit our Privacy Policy to learn more. By continuing to use the site, you agree to this use of cookies and data.
  • In Spain
  • List of Countries
  • For 7 days
  • Water Temperature
  • Weather Map
  • Weather Widgets
  • user-avatar
    Login

    Hourly Weather Borovkovskiy

    Today, 6 June, Saturday

    Time Temperature Precipitation Wind Pressure Humidity
    00:00 +10°C° 0 mm 2 mps 737 mmHg 95%
    01:00 +9°C° 0 mm 2 mps 737 mmHg 95%
    02:00 +9°C° 0 mm 2 mps 737 mmHg 95%
    03:00 +10°C° 0 mm 1 mps 738 mmHg 95%
    04:00 +11°C° 0 mm 1 mps 738 mmHg 96%
    05:00 +10°C° 0 mm 2 mps 738 mmHg 96%
    06:00 +12°C° 0 mm 2 mps 738 mmHg 96%
    07:00 +13°C° 0 mm 2 mps 738 mmHg 93%
    08:00 +14°C° 0 mm 3 mps 738 mmHg 91%
    09:00 +16°C° 0 mm 3 mps 738 mmHg 89%
    10:00 +17°C° 0 mm 3 mps 738 mmHg 87%
    11:00 +18°C° 0 mm 3 mps 739 mmHg 85%
    12:00 +19°C° 0 mm 4 mps 739 mmHg 84%
    13:00 +20°C° 0 mm 4 mps 739 mmHg 83%
    14:00 +20°C° 0 mm 4 mps 739 mmHg 83%
    15:00 +21°C° 0 mm 4 mps 739 mmHg 82%
    16:00 +21°C° 0.1 mm 4 mps 739 mmHg 82%
    17:00 +21°C° 0.1 mm 3 mps 739 mmHg 83%
    18:00 +22°C° 0.1 mm 3 mps 738 mmHg 83%
    19:00 +21°C° 1 mm 3 mps 739 mmHg 86%
    20:00 +20°C° 1 mm 3 mps 739 mmHg 89%
    21:00 +18°C° 1 mm 2 mps 739 mmHg 92%
    22:00 +18°C° 0.1 mm 3 mps 739 mmHg 92%
    23:00 +17°C° 0.1 mm 3 mps 739 mmHg 93%

    Tomorrow, 7 June, Sunday

    Time Temperature Precipitation Wind Pressure Humidity
    00:00 +17°C° 0.1 mm 3 mps 739 mmHg 93%
    01:00 +16°C° 0 mm 3 mps 740 mmHg 94%
    02:00 +16°C° 0 mm 2 mps 740 mmHg 94%
    03:00 +16°C° 0 mm 2 mps 740 mmHg 95%
    04:00 +16°C° 0 mm 2 mps 740 mmHg 95%
    05:00 +17°C° 0 mm 2 mps 741 mmHg 95%
    06:00 +17°C° 0 mm 2 mps 741 mmHg 94%
    07:00 +18°C° 0 mm 2 mps 741 mmHg 90%
    08:00 +21°C° 0 mm 1 mps 742 mmHg 86%
    09:00 +22°C° 0 mm 1 mps 742 mmHg 81%
    10:00 +23°C° 0 mm 2 mps 742 mmHg 77%
    11:00 +24°C° 0 mm 2 mps 742 mmHg 72%
    12:00 +25°C° 0 mm 3 mps 742 mmHg 67%
    13:00 +25°C° 0 mm 2 mps 742 mmHg 65%
    14:00 +26°C° 0 mm 2 mps 742 mmHg 63%
    15:00 +26°C° 0 mm 2 mps 742 mmHg 61%
    16:00 +26°C° 0 mm 2 mps 742 mmHg 65%
    17:00 +26°C° 0 mm 2 mps 742 mmHg 68%
    18:00 +25°C° 0 mm 2 mps 742 mmHg 71%
    19:00 +24°C° 0 mm 1 mps 742 mmHg 74%
    20:00 +22°C° 0 mm 1 mps 742 mmHg 78%
    21:00 +20°C° 0 mm 1 mps 743 mmHg 81%
    22:00 +19°C° 0 mm 1 mps 743 mmHg 82%
    23:00 +18°C° 0 mm 1 mps 743 mmHg 83%

    Day after tomorrow, 8 June, Monday

    Time Temperature Precipitation Wind Pressure Humidity
    00:00 +18°C° 0 mm 1 mps 743 mmHg 84%
    01:00 +18°C° 0 mm 1 mps 743 mmHg 86%
    02:00 +16°C° 0 mm 1 mps 743 mmHg 89%
    03:00 +16°C° 0 mm 1 mps 743 mmHg 91%
    04:00 +17°C° 0 mm 2 mps 743 mmHg 92%
    05:00 +17°C° 0 mm 2 mps 743 mmHg 92%
    06:00 +18°C° 0 mm 2 mps 744 mmHg 92%
    07:00 +19°C° 0 mm 2 mps 744 mmHg 88%
    08:00 +21°C° 0 mm 2 mps 744 mmHg 84%
    09:00 +23°C° 0 mm 2 mps 744 mmHg 80%
    10:00 +24°C° 0 mm 3 mps 744 mmHg 76%
    11:00 +25°C° 0 mm 3 mps 744 mmHg 72%
    12:00 +26°C° 0 mm 3 mps 744 mmHg 68%
    13:00 +26°C° 0 mm 3 mps 743 mmHg 67%
    14:00 +26°C° 0 mm 3 mps 743 mmHg 67%
    15:00 +27°C° 0 mm 3 mps 743 mmHg 66%
    16:00 +26°C° 0 mm 3 mps 743 mmHg 71%
    17:00 +26°C° 0 mm 3 mps 743 mmHg 75%
    18:00 +25°C° 0 mm 4 mps 742 mmHg 79%
    19:00 +24°C° 0 mm 3 mps 743 mmHg 83%
    20:00 +21°C° 0 mm 3 mps 743 mmHg 87%
    21:00 +20°C° 0 mm 3 mps 743 mmHg 91%
    22:00 +19°C° 0 mm 3 mps 743 mmHg 91%
    23:00 +18°C° 0 mm 3 mps 743 mmHg 91%

    9 June, Tuesday

    Time Temperature Precipitation Wind Pressure Humidity
    00:00 +17°C° 0 mm 2 mps 743 mmHg 91%
    01:00 +17°C° 0 mm 2 mps 743 mmHg 91%
    02:00 +16°C° 0 mm 2 mps 743 mmHg 91%
    03:00 +16°C° 0 mm 2 mps 743 mmHg 92%
    04:00 +16°C° 0 mm 2 mps 743 mmHg 91%
    05:00 +17°C° 0 mm 2 mps 743 mmHg 91%
    06:00 +17°C° 0 mm 2 mps 743 mmHg 90%
    07:00 +19°C° 0 mm 3 mps 744 mmHg 87%
    08:00 +20°C° 0 mm 3 mps 744 mmHg 84%
    09:00 +22°C° 0 mm 3 mps 744 mmHg 80%
    10:00 +22°C° 0 mm 3 mps 744 mmHg 77%
    11:00 +23°C° 0 mm 4 mps 744 mmHg 74%
    12:00 +25°C° 0 mm 4 mps 744 mmHg 70%
    13:00 +25°C° 0 mm 4 mps 744 mmHg 69%
    14:00 +25°C° 0 mm 4 mps 743 mmHg 69%
    15:00 +25°C° 0 mm 3 mps 743 mmHg 68%
    16:00 +25°C° 0.1 mm 3 mps 743 mmHg 71%
    17:00 +25°C° 0.1 mm 3 mps 743 mmHg 73%
    18:00 +25°C° 0.1 mm 3 mps 742 mmHg 76%
    19:00 +23°C° 0.1 mm 2 mps 743 mmHg 80%
    20:00 +21°C° 0.1 mm 2 mps 743 mmHg 84%
    21:00 +19°C° 0.1 mm 2 mps 743 mmHg 88%
    22:00 +19°C° 0 mm 2 mps 743 mmHg 89%
    23:00 +18°C° 0 mm 2 mps 742 mmHg 90%

    10 June, Wednesday

    Time Temperature Precipitation Wind Pressure Humidity
    00:00 +17°C° 0 mm 2 mps 742 mmHg 91%
    01:00 +18°C° 0 mm 1 mps 742 mmHg 92%
    02:00 +18°C° 0 mm 1 mps 742 mmHg 92%
    03:00 +16°C° 0 mm 1 mps 742 mmHg 93%
    04:00 +18°C° 0 mm 1 mps 742 mmHg 92%
    05:00 +18°C° 0 mm 1 mps 742 mmHg 92%
    06:00 +19°C° 0 mm 1 mps 742 mmHg 91%
    07:00 +20°C° 0 mm 1 mps 742 mmHg 87%
    08:00 +21°C° 0 mm 1 mps 742 mmHg 83%
    09:00 +23°C° 0 mm 2 mps 742 mmHg 79%
    10:00 +23°C° 0.2 mm 2 mps 742 mmHg 76%
    11:00 +24°C° 0.2 mm 2 mps 742 mmHg 73%
    12:00 +25°C° 0.2 mm 2 mps 742 mmHg 70%
    13:00 +25°C° 0.7 mm 2 mps 742 mmHg 70%
    14:00 +26°C° 0.7 mm 2 mps 742 mmHg 69%
    15:00 +26°C° 0.7 mm 2 mps 741 mmHg 68%
    16:00 +26°C° 0.2 mm 2 mps 741 mmHg 69%
    17:00 +26°C° 0.2 mm 2 mps 741 mmHg 71%
    18:00 +26°C° 0.2 mm 1 mps 741 mmHg 72%
    19:00 +24°C° 0 mm 1 mps 741 mmHg 76%
    20:00 +23°C° 0 mm 1 mps 741 mmHg 81%
    21:00 +21°C° 0 mm 1 mps 741 mmHg 85%
    22:00 +21°C° 0 mm 1 mps 741 mmHg 87%
    23:00 +20°C° 0 mm 1 mps 741 mmHg 88%

    11 June, Thursday

    Time Temperature Precipitation Wind Pressure Humidity
    00:00 +19°C° 0 mm 1 mps 741 mmHg 89%
    01:00 +19°C° 0 mm 1 mps 741 mmHg 90%
    02:00 +19°C° 0 mm 1 mps 741 mmHg 91%
    03:00 +19°C° 0 mm 1 mps 741 mmHg 91%
    04:00 +19°C° 0 mm 1 mps 740 mmHg 90%
    05:00 +20°C° 0 mm 1 mps 740 mmHg 89%
    06:00 +21°C° 0 mm 1 mps 740 mmHg 88%
    07:00 +22°C° 0 mm 1 mps 740 mmHg 84%
    08:00 +23°C° 0 mm 1 mps 740 mmHg 79%
    09:00 +25°C° 0 mm 1 mps 741 mmHg 75%
    10:00 +26°C° 0 mm 1 mps 740 mmHg 71%
    11:00 +27°C° 0 mm 2 mps 740 mmHg 67%
    12:00 +28°C° 0 mm 2 mps 740 mmHg 63%
    13:00 +28°C° 0 mm 2 mps 740 mmHg 62%
    14:00 +29°C° 0 mm 2 mps 740 mmHg 62%
    15:00 +29°C° 0 mm 2 mps 739 mmHg 61%
    16:00 +29°C° 0.1 mm 2 mps 739 mmHg 65%
    17:00 +28°C° 0.1 mm 2 mps 739 mmHg 69%
    18:00 +28°C° 0.1 mm 2 mps 739 mmHg 73%
    19:00 +26°C° 0.2 mm 2 mps 739 mmHg 77%
    20:00 +25°C° 0.2 mm 2 mps 739 mmHg 81%
    21:00 +23°C° 0.2 mm 2 mps 739 mmHg 85%
    22:00 +21°C° 0 mm 2 mps 739 mmHg 86%
    23:00 +21°C° 0 mm 2 mps 739 mmHg 87%
    Show more